TIME,DELAY(SENSOR),PRES,OXYGEN,RAWTEMP,T(OPTODE),TCPHASE,FLUOR,BETA(BETA700),BETA(BETA412),BETA(BETA440),CDOM,C(CSC),ED(ED412.40),ED(ED444.00),ED(ED489.70),ED(ED554.30),LU(LU411.80),LU(LU443.40),LU(LU489.60),LU(LU554.10),COMP,TILTX,TILTY,CHECK
1363319844,5805,868.6199951171875000,44.7176399230957000,660.1674804687500000,4.6224560737609860,54.3038787841796900,52,100,87,79,80,14793,2147757037,2147421202,2148011922,2147878674,2147637037,2147057837,2148257398,2147198253,2729,4,13,951
1363323440,5809,936.5800170898438000,47.1049499511718750,668.5476074218750000,4.3461651802062990,54.0610198974609400,53,100,91,79,80,14798,2147757641,2147426468,2148009572,2147874944,2147640859,2147057728,2148263716,2147200082,367,4,13,61299
1363327040,5810,948.8800048828125000,47.5745010375976560,669.5383300781250000,4.3134479522705080,54.0049095153808600,53,99,88,78,80,14791,2147758006,2147422555,2148012379,2147876205,2147642075,2147069686,2148258989,2147198235,67,4,13,29583
1363330640,5810,974.0499877929688000,48.9263381958007800,671.9578857421875000,4.2334980964660645,53.8429107666015600,53,98,85,78,80,14791,2147760374,2147423917,2148011922,2147879104,2147645156,2147056502,2148260672,2147200000,3173,4,13,44379
1363334240,5810,985.8099975585938000,48.8395996093750000,672.1406860351562000,4.2274570465087890,53.8583412170410160,52,100,87,79,81,14790,2147759433,2147423990,2148012041,2147877019,2147640347,2147057371,2148260681,2147195117,249,4,13,29329
1363337840,5810,984.2399902343750000,48.4825286865234400,671.5598144531250000,4.2466578483581540,53.8997802734375000,52,100,84,77,81,14790,2147758729,2147426285,2148009892,2147877723,2147639268,2147059309,2148261796,2147197970,3408,4,13,14725
1363341440,5812,989.2000122070312000,48.4342803955078100,672.1875000000000000,4.2259101867675780,53.9179611206054700,53,99,84,79,80,14794,2147756470,2147422628,2148012342,2147878564,2147642294,2147056493,2148264914,2147195465,82,4,13,64296
1363345040,5809,983.9299926757812000,48.1616401672363300,671.6192016601562000,4.2446942329406740,53.9435615539550800,53,98,86,79,81,14791,2147762331,2147424877,2148012068,2147874486,2147643602,2147058642,2148267547,2147196041,413,4,13,8550
1363348640,5808,993.0599975585938000,48.2536087036132800,671.4213256835938000,4.2512340545654300,53.9320487976074200,52,98,85,79,81,14791,2147756288,2147426925,2148010624,2147879067,2147642724,2147058267,2148259190,2147199625,347,4,13,30508
1363352240,5808,989.1599731445312000,48.0419006347656250,672.0028076171875000,4.2320141792297360,53.9651985168457000,52,99,89,79,80,14789,2147756123,2147423177,2148011785,2147880822,2147644489,2147057526,2148262866,2147197174,3186,4,13,35329
1363355840,5812,983.2999877929688000,48.7846298217773440,673.4707031250000000,4.1834788322448730,53.8803215026855500,53,99,87,79,80,14790,2147760411,2147425216,2148008969,2147877174,2147642532,2147060086,2148267492,2147194825,628,4,13,41686
1363359440,5808,988.4400024414062000,49.3733100891113300,674.0573730468750000,4.1640739440917970,53.8109092712402340,52,98,86,78,80,14788,2147758838,2147424192,2148012900,2147875136,2147641590,2147058697,2148266761,2147196370,141,4,13,3176
1363363040,5805,987.8099975585938000,48.8601608276367200,674.6403198242188000,4.1447911262512210,53.8898582458496100,52,98,88,80,81,14792,2147756416,2147426733,2148011117,2147879021,2147643419,2147059282,2148263552,2147196644,3521,4,13,40507
1363366640,5810,994.0900268554688000,48.5440406799316400,673.8209838867188000,4.1718897819519040,53.9224586486816400,53,98,87,81,81,14788,2147760585,2147422034,2148009526,2147876708,2147643456,2147062153,2148264557,2147199350,129,4,13,41154
1363370240,5809,991.2500000000000000,48.2075195312500000,672.7470703125000000,4.2074089050292970,53.9564399719238300,53,99,87,79,80,14788,2147760155,2147421979,2148010569,2147874276,2147643300,2147058066,2148263954,2147200256,3507,4,13,5040
1363373840,5809,996.9199829101562000,49.0430793762207000,673.2387084960938000,4.1911511421203610,53.8456993103027340,52,99,88,78,80,14766,2147759350,2147421110,2148008749,2147876827,2147644937,2147060754,2148258925,2147200868,39,4,13,16581
1363377440,5807,1001.4000244140625000,48.1706008911132800,672.5966796875000000,4.2123808860778810,53.9582290649414060,53,98,83,80,80,14769,2147763072,2147424777,2148013357,2147875465,2147642276,2147054994,2148263497,2147198500,3411,4,13,17233
1363381040,5808,994.3400268554688000,47.8570289611816400,672.7595214843750000,4.2069988250732420,54.0042495727539060,52,99,83,79,80,14766,2147759405,2147423542,2148013028,2147875483,2147643593,2147059593,2148264667,2147199552,3277,4,13,14657
1363384640,5811,991.2100219726562000,48.3997383117675800,672.9379272460938000,4.2010989189147950,53.9288482666015600,53,99,85,79,80,14766,2147761590,2147424128,2148009636,2147875913,2147640594,2147055835,2148264612,2147194797,38,4,13,45241
1363388240,5809,1003.6400146484375000,48.6207695007324200,672.3955078125000000,4.2190318107604980,53.8921699523925800,53,100,89,79,80,14763,2147755958,2147426331,2148010971,2147875026,2147642020,2147061476,2148263478,2147199808,2857,4,13,27290
1363391840,5812,1003.0900268554688000,48.0049095153808600,671.9428100585938000,4.2339968681335450,53.9740104675293000,53,98,86,82,80,14766,2147758985,2147425920,2148010496,2147874203,2147644013,2147057883,2148259291,2147203309,55,4,13,62437
1363395440,5808,998.4500122070312000,47.8230514526367200,671.8942871093750000,4.2356009483337400,53.9940986633300800,53,100,84,79,79,14766,2147757101,2147427510,2148012955,2147877467,2147638610,2147059913,2148264896,2147200146,529,4,13,17622
1363399040,5805,1000.7100219726562000,48.2409515380859400,672.3104248046875000,4.2218461036682130,53.9446907043457000,52,101,86,79,80,14765,2147759076,2147426313,2148011574,2147875309,2147641462,2147060169,2148256118,2147200384,119,4,13,56602
1363402640,5810,993.0399780273438000,47.9912605285644500,673.2667236328125000,4.1902279853820800,53.9896011352539060,52,99,89,80,81,14765,2147759085,2147426386,2148012342,2147876187,2147642404,2147064155,2148262656,2147199067,3536,4,13,12841
1363406240,5810,993.9699707031250000,48.9099807739257800,673.9130249023438000,4.1688518524169920,53.8674812316894500,52,98,88,80,81,14769,2147760411,2147424768,2148011309,2147875062,2147643968,2147063497,2148261092,2147196315,74,4,13,10285
1363409840,5810,1002.4600219726562000,48.6286506652832000,672.6287231445312000,4.2113227844238280,53.8953208923339840,51,100,87,79,80,14765,2147758592,2147428434,2148009965,2147879360,2147641654,2147057993,2148263579,2147197677,3443,4,13,65407
1363413440,5809,1005.9899902343750000,48.2103881835937500,671.7440795898438000,4.2405638694763180,53.9400291442871100,52,102,85,78,80,14764,2147756717,2147426916,2148011300,2147873161,2147639789,2147061248,2148259437,2147197641,3150,4,13,2831
1363417040,5808,1000.3400268554688000,47.3776092529296900,671.9569702148438000,4.2335300445556640,54.0632209777832000,52,99,82,78,80,14763,2147755712,2147424521,2148010916,2147876361,2147643894,2147059657,2148261970,2147198573,262,4,13,6981
1363420640,5807,1001.4000244140625000,48.6143684387207000,672.9326782226562000,4.2012691497802730,53.9026184082031250,52,99,83,80,81,14761,2147759917,2147428470,2148010404,2147873472,2147640082,2147059227,2148259510,2147195904,255,4,13,18697
1363424240,5810,1000.2700195312500000,48.5990600585937500,672.8853759765625000,4.2028331756591800,53.9010086059570300,53,99,85,79,81,14758,2147757138,2147423433,2148012187,2147874304,2147643026,2147060580,2148264393,2147197860,325,4,13,60334
1363427840,5812,995.7000122070312000,48.1898498535156250,673.4738159179688000,4.1833782196044920,53.9693489074707000,52,98,87,79,80,14760,2147757165,2147422208,2148012306,2147875812,2147642166,2147059373,2148259026,2147197933,11,4,13,25053
1363431440,5808,1004.0800170898438000,48.5836601257324200,672.5634765625000000,4.2134780883789060,53.9008293151855500,52,100,81,82,80,14761,2147759405,2147425545,2148011446,2147875401,2147640475,2147059154,2148260873,2147200128,805,4,13,4251
1363435040,5809,998.1599731445312000,48.2234115600585940,672.6417236328125000,4.2108922004699710,53.9539413452148440,53,99,86,79,80,14727,2147760804,2147424502,2148007524,2147876608,2147643209,2147055561,2148262784,2147202496,3192,4,13,31054
1363438640,5807,991.8200073242188000,48.2518196105957000,673.6226196289062000,4.1784548759460450,53.9569206237793000,52,98,84,78,80,14729,2147755428,2147423451,2148009810,2147876708,2147642130,2147055716,2148262372,2147198665,229,4,13,17419
1363442240,5807,1002.2999877929688000,49.0721282958984400,673.9313964843750000,4.1682419776916500,53.8483505249023440,52,97,87,79,80,14739,2147756626,2147424996,2148012690,2147874212,2147642121,2147059629,2148264338,2147198134,516,4,13,60708
1363445840,5809,987.5999755859375000,48.2425498962402340,674.4274291992188000,4.1518311500549320,53.9739494323730500,53,99,88,79,80,14740,2147757686,2147423341,2148009088,2147877632,2147643318,2147053494,2148261714,2147198765,3405,4,13,30542
1363449440,5811,984.9000244140625000,48.6281814575195300,676.0031127929688000,4.0996880531311035,53.9363899230957000,53,99,83,79,81,14739,2147757348,2147422436,2148012498,2147876946,2147641709,2147053696,2148258112,2147197915,638,4,13,2051
1363453040,5811,991.0200195312500000,48.8165283203125000,675.9910888671875000,4.1000838279724120,53.9074401855468750,53,99,88,79,81,14742,2147756891,2147420617,2148009746,2147872987,2147641216,2147057179,2148260854,2147199040,3401,4,13,48057
1363456640,5807,1000.8300170898438000,48.9918785095214840,674.4744873046875000,4.1502718925476070,53.8644714355468750,52,96,88,79,80,14740,2147758418,2147426422,2148010176,2147874578,2147641106,2147052397,2148262198,2147199113,3474,4,13,29933
1363460240,5808,1017.0800170898438000,48.8575096130371100,672.9907836914062000,4.1993498802185060,53.8684082031250000,52,101,87,79,80,14743,2147760621,2147424338,2148009024,2147876242,2147640457,2147062336,2148261467,2147196662,3422,4,13,41107
1363463840,5809,1009.6300048828125000,48.0102500915527340,671.9119873046875000,4.2350158691406250,53.9711494445800800,52,99,89,79,81,14741,2147756516,2147424786,2148011492,2147876397,2147642166,2147063862,2148259849,2147199990,3209,4,13,41061
1363464654,5809,1015.4400024414062000,48.0519104003906250,671.6558837890625000,4.2434830665588380,53.9653205871582000,52,100,98,78,80,14746,2147758692,2147425609,2148007177,2147876260,2147640228,2147062692,2148262646,2147194898,3003,4,13,6026
